• Em Portugal
  • Lista de países
  • Para 7 dias
  • Temperatura da água
  • Mapas de satélite
  • Mapa do tempo
  • Widgets de tempo
  • user-avatar
    Iniciar Sessão

    Previsão horária em Zaranj

    Hoje, 20 Janeiro, Sábado

    Tempo Temperatura Precipitação Vento Pressão Humidade
    00:00 +13°C° 0 mm 2 m/s 721 mmHg 20%
    01:00 +13°C° 0 mm 2 m/s 721 mmHg 20%
    02:00 +12°C° 0 mm 2 m/s 721 mmHg 20%
    03:00 +12°C° 0 mm 2 m/s 720 mmHg 20%
    04:00 +12°C° 0 mm 2 m/s 720 mmHg 21%
    05:00 +10°C° 0 mm 2 m/s 720 mmHg 22%
    06:00 +10°C° 0 mm 2 m/s 720 mmHg 23%
    07:00 +10°C° 0 mm 2 m/s 720 mmHg 25%
    08:00 +13°C° 0 mm 2 m/s 720 mmHg 23%
    09:00 +15°C° 0 mm 2 m/s 720 mmHg 21%
    10:00 +17°C° 0 mm 2 m/s 721 mmHg 19%
    11:00 +18°C° 0 mm 2 m/s 720 mmHg 18%
    12:00 +19°C° 0 mm 2 m/s 720 mmHg 18%
    13:00 +20°C° 0 mm 2 m/s 719 mmHg 17%
    14:00 +21°C° 0 mm 2 m/s 719 mmHg 17%
    15:00 +21°C° 0 mm 2 m/s 719 mmHg 18%
    16:00 +23°C° 0 mm 2 m/s 718 mmHg 16%
    17:00 +20°C° 0 mm 2 m/s 718 mmHg 18%
    18:00 +19°C° 0 mm 1 m/s 718 mmHg 21%
    19:00 +18°C° 0 mm 1 m/s 718 mmHg 23%
    20:00 +16°C° 0 mm 1 m/s 718 mmHg 23%
    21:00 +15°C° 0 mm 1 m/s 717 mmHg 24%
    22:00 +15°C° 0 mm 1 m/s 717 mmHg 24%
    23:00 +14°C° 0 mm 1 m/s 717 mmHg 24%

    Amanhã, 21 Janeiro, Domingo

    Tempo Temperatura Precipitação Vento Pressão Humidade
    00:00 +14°C° 0 mm 1 m/s 717 mmHg 25%
    01:00 +14°C° 0 mm 1 m/s 716 mmHg 25%
    02:00 +13°C° 0 mm 2 m/s 716 mmHg 25%
    03:00 +13°C° 0 mm 2 m/s 716 mmHg 25%
    04:00 +13°C° 0 mm 2 m/s 715 mmHg 26%
    05:00 +12°C° 0 mm 2 m/s 715 mmHg 27%
    06:00 +12°C° 0 mm 2 m/s 715 mmHg 28%
    07:00 +12°C° 0 mm 2 m/s 715 mmHg 30%
    08:00 +14°C° 0 mm 2 m/s 716 mmHg 27%
    09:00 +15°C° 0 mm 2 m/s 716 mmHg 24%
    10:00 +17°C° 0 mm 2 m/s 716 mmHg 21%
    11:00 +18°C° 0 mm 3 m/s 716 mmHg 20%
    12:00 +20°C° 0 mm 3 m/s 715 mmHg 19%
    13:00 +21°C° 0 mm 3 m/s 715 mmHg 18%
    14:00 +21°C° 0 mm 3 m/s 715 mmHg 18%
    15:00 +21°C° 0 mm 4 m/s 715 mmHg 18%
    16:00 +21°C° 0 mm 4 m/s 715 mmHg 18%
    17:00 +20°C° 0 mm 6 m/s 716 mmHg 20%
    18:00 +17°C° 0 mm 7 m/s 716 mmHg 22%
    19:00 +16°C° 0 mm 8 m/s 717 mmHg 24%
    20:00 +15°C° 0 mm 8 m/s 717 mmHg 29%
    21:00 +13°C° 0 mm 8 m/s 717 mmHg 33%
    22:00 +12°C° 0 mm 8 m/s 718 mmHg 38%
    23:00 +12°C° 0 mm 8 m/s 718 mmHg 41%

    Depois de amanhã, 22 Janeiro, Segunda-feira

    Tempo Temperatura Precipitação Vento Pressão Humidade
    00:00 +11°C° 0 mm 8 m/s 718 mmHg 44%
    01:00 +10°C° 0 mm 8 m/s 718 mmHg 47%
    02:00 +10°C° 0 mm 8 m/s 718 mmHg 49%
    03:00 +9°C° 0 mm 8 m/s 718 mmHg 50%
    04:00 +9°C° 0 mm 8 m/s 718 mmHg 51%
    05:00 +9°C° 0 mm 8 m/s 719 mmHg 51%
    06:00 +9°C° 0 mm 8 m/s 719 mmHg 51%
    07:00 +7°C° 0 mm 8 m/s 719 mmHg 51%
    08:00 +10°C° 0 mm 9 m/s 720 mmHg 45%
    09:00 +11°C° 0 mm 10 m/s 720 mmHg 39%
    10:00 +12°C° 0 mm 11 m/s 720 mmHg 33%
    11:00 +13°C° 0 mm 11 m/s 720 mmHg 30%
    12:00 +14°C° 0 mm 11 m/s 719 mmHg 26%
    13:00 +16°C° 0 mm 10 m/s 719 mmHg 23%
    14:00 +16°C° 0 mm 10 m/s 719 mmHg 23%
    15:00 +16°C° 0 mm 10 m/s 719 mmHg 23%
    16:00 +16°C° 0 mm 9 m/s 718 mmHg 23%
    17:00 +16°C° 0 mm 8 m/s 719 mmHg 24%
    18:00 +15°C° 0 mm 7 m/s 719 mmHg 26%
    19:00 +14°C° 0 mm 6 m/s 720 mmHg 27%
    20:00 +13°C° 0 mm 6 m/s 720 mmHg 28%
    21:00 +13°C° 0 mm 5 m/s 720 mmHg 29%
    22:00 +12°C° 0 mm 5 m/s 720 mmHg 31%
    23:00 +12°C° 0 mm 4 m/s 720 mmHg 32%

    23 Janeiro, Terça-feira

    Tempo Temperatura Precipitação Vento Pressão Humidade
    00:00 +11°C° 0 mm 4 m/s 720 mmHg 33%
    01:00 +11°C° 0 mm 4 m/s 720 mmHg 35%
    02:00 +10°C° 0 mm 3 m/s 719 mmHg 35%
    03:00 +10°C° 0 mm 3 m/s 719 mmHg 36%
    04:00 +10°C° 0 mm 3 m/s 719 mmHg 37%
    05:00 +9°C° 0 mm 2 m/s 719 mmHg 38%
    06:00 +9°C° 0 mm 2 m/s 719 mmHg 40%
    07:00 +9°C° 0 mm 1 m/s 719 mmHg 41%
    08:00 +11°C° 0 mm 1 m/s 720 mmHg 36%
    09:00 +13°C° 0 mm 1 m/s 720 mmHg 32%
    10:00 +15°C° 0 mm 1 m/s 721 mmHg 27%
    11:00 +16°C° 0 mm 1 m/s 720 mmHg 25%
    12:00 +18°C° 0 mm 1 m/s 719 mmHg 23%
    13:00 +18°C° 0 mm 2 m/s 719 mmHg 21%
    14:00 +18°C° 0 mm 2 m/s 718 mmHg 20%
    15:00 +19°C° 0 mm 2 m/s 718 mmHg 19%
    16:00 +19°C° 0 mm 2 m/s 717 mmHg 19%
    17:00 +18°C° 0 mm 2 m/s 718 mmHg 20%
    18:00 +17°C° 0 mm 2 m/s 718 mmHg 21%
    19:00 +16°C° 0 mm 2 m/s 718 mmHg 22%
    20:00 +15°C° 0 mm 2 m/s 718 mmHg 23%
    21:00 +14°C° 0 mm 2 m/s 718 mmHg 23%
    22:00 +14°C° 0 mm 2 m/s 718 mmHg 23%
    23:00 +13°C° 0 mm 2 m/s 718 mmHg 24%

    24 Janeiro, Quarta-feira

    Tempo Temperatura Precipitação Vento Pressão Humidade
    00:00 +13°C° 0 mm 2 m/s 718 mmHg 25%
    01:00 +13°C° 0 mm 2 m/s 718 mmHg 25%
    02:00 +12°C° 0 mm 2 m/s 717 mmHg 27%
    03:00 +12°C° 0 mm 2 m/s 717 mmHg 29%
    04:00 +10°C° 0 mm 2 m/s 717 mmHg 31%
    05:00 +10°C° 0 mm 2 m/s 718 mmHg 33%
    06:00 +11°C° 0 mm 1 m/s 718 mmHg 35%
    07:00 +10°C° 0 mm 1 m/s 718 mmHg 37%
    08:00 +12°C° 0 mm 1 m/s 719 mmHg 33%
    09:00 +14°C° 0 mm 2 m/s 719 mmHg 29%
    10:00 +16°C° 0 mm 2 m/s 720 mmHg 25%
    11:00 +18°C° 0 mm 1 m/s 719 mmHg 23%
    12:00 +20°C° 0 mm 1 m/s 719 mmHg 21%
    13:00 +21°C° 0 mm 1 m/s 718 mmHg 18%
    14:00 +21°C° 0 mm 1 m/s 718 mmHg 18%
    15:00 +21°C° 0 mm 1 m/s 718 mmHg 17%
    16:00 +22°C° 0 mm 1 m/s 718 mmHg 17%
    17:00 +20°C° 0 mm 1 m/s 718 mmHg 19%
    18:00 +19°C° 0 mm 1 m/s 718 mmHg 21%
    19:00 +16°C° 0 mm 1 m/s 719 mmHg 23%
    20:00 +15°C° 0 mm 1 m/s 719 mmHg 25%
    21:00 +15°C° 0 mm 1 m/s 719 mmHg 26%
    22:00 +14°C° 0 mm 1 m/s 719 mmHg 27%
    23:00 +14°C° 0 mm 1 m/s 719 mmHg 28%

    25 Janeiro, Quinta-feira

    Tempo Temperatura Precipitação Vento Pressão Humidade
    00:00 +13°C° 0 mm 1 m/s 719 mmHg 28%
    01:00 +13°C° 0 mm 1 m/s 719 mmHg 29%
    02:00 +13°C° 0 mm 1 m/s 718 mmHg 30%
    03:00 +12°C° 0 mm 1 m/s 718 mmHg 31%
    04:00 +12°C° 0 mm 1 m/s 718 mmHg 33%
    05:00 +12°C° 0 mm 1 m/s 719 mmHg 34%
    06:00 +11°C° 0 mm 1 m/s 719 mmHg 35%
    07:00 +11°C° 0 mm 1 m/s 719 mmHg 36%
    08:00 +13°C° 0 mm 1 m/s 720 mmHg 31%
    09:00 +16°C° 0 mm 1 m/s 721 mmHg 26%
    10:00 +17°C° 0 mm 0 m/s 721 mmHg 21%
    11:00 +20°C° 0 mm 1 m/s 721 mmHg 19%
    12:00 +21°C° 0 mm 1 m/s 720 mmHg 17%
    13:00 +23°C° 0 mm 1 m/s 720 mmHg 15%
    14:00 +23°C° 0 mm 1 m/s 720 mmHg 15%
    15:00 +23°C° 0 mm 2 m/s 719 mmHg 14%
    16:00 +23°C° 0 mm 2 m/s 719 mmHg 14%
    17:00 +21°C° 0 mm 2 m/s 719 mmHg 16%
    18:00 +20°C° 0 mm 1 m/s 719 mmHg 17%
    19:00 +18°C° 0 mm 1 m/s 720 mmHg 19%
    20:00 +17°C° 0 mm 2 m/s 720 mmHg 20%
    21:00 +17°C° 0 mm 2 m/s 720 mmHg 21%
    22:00 +16°C° 0 mm 2 m/s 720 mmHg 22%
    23:00 +16°C° 0 mm 3 m/s 720 mmHg 23%
    Mostrar mais